Location: Devargunta
(16.7631°N, 80.9077°E)
Time: 19:42:05
(UTC+00:00)

ARGOS - Pass Details

Date: 19 January 2021
Orbit: 821 x 834 km, 98.4° (Epoch: 04 March)

Event Time Altitude Azimuth Distance (km) Brightness Sun altitude
Rises 14:16:04 0° 176° (S) 3,340 6.4 -26.1°
Reaches altitude 10° 14:18:27 10° 180° (S) 2,408 5.7 -26.6°
Maximum altitude 14:23:41 59° 258° (WSW) 942 3.6 -27.8°
Drops below altitude 10° 14:28:56 10° 338° (NNW) 2,413 5.6 -29.0°
Sets 14:31:20 0° 342° (NNW) 3,348 6.4 -29.6°
